Hourly Weather Barrancas

Today, 30 October, Friday

Time Temperature Precipitation Wind Pressure Humidity
00:00 +25°C° 0.3 mm 1 mps 736 mmHg 89%
01:00 +25°C° 0 mm 1 mps 736 mmHg 87%
02:00 +25°C° 0.2 mm 1 mps 736 mmHg 87%
03:00 +25°C° 0.2 mm 1 mps 735 mmHg 87%
04:00 +25°C° 0.2 mm 1 mps 735 mmHg 86%
05:00 +25°C° 0.1 mm 1 mps 736 mmHg 84%
06:00 +26°C° 0.1 mm 1 mps 737 mmHg 82%
07:00 +25°C° 0.1 mm 0 mps 738 mmHg 80%
08:00 +29°C° 0.2 mm 1 mps 738 mmHg 76%
09:00 +30°C° 0.2 mm 1 mps 738 mmHg 71%
10:00 +32°C° 0.2 mm 1 mps 738 mmHg 67%
11:00 +32°C° 0.3 mm 2 mps 737 mmHg 67%
12:00 +32°C° 0.3 mm 2 mps 736 mmHg 66%
13:00 +34°C° 0.3 mm 2 mps 735 mmHg 66%
14:00 +32°C° 0.5 mm 2 mps 735 mmHg 70%
15:00 +32°C° 0.5 mm 2 mps 734 mmHg 74%
16:00 +31°C° 0.5 mm 1 mps 734 mmHg 78%
17:00 +30°C° 1.2 mm 1 mps 735 mmHg 82%
18:00 +28°C° 1.2 mm 1 mps 735 mmHg 87%
19:00 +27°C° 1.2 mm 1 mps 736 mmHg 92%
20:00 +26°C° 3.3 mm 1 mps 736 mmHg 93%
21:00 +26°C° 3.3 mm 1 mps 737 mmHg 94%
22:00 +26°C° 3.3 mm 2 mps 737 mmHg 95%
23:00 +25°C° 2 mm 2 mps 737 mmHg 95%

Tomorrow, 31 October, Saturday

Time Temperature Precipitation Wind Pressure Humidity
00:00 +25°C° 2 mm 2 mps 736 mmHg 95%
01:00 +25°C° 2 mm 2 mps 736 mmHg 95%
02:00 +25°C° 0.5 mm 1 mps 736 mmHg 94%
03:00 +25°C° 0.5 mm 1 mps 736 mmHg 93%
04:00 +24°C° 0.5 mm 1 mps 736 mmHg 93%
05:00 +25°C° 2 mm 1 mps 737 mmHg 93%
06:00 +25°C° 2 mm 1 mps 737 mmHg 93%
07:00 +25°C° 2 mm 1 mps 738 mmHg 93%
08:00 +26°C° 1.5 mm 1 mps 738 mmHg 91%
09:00 +27°C° 1.5 mm 1 mps 738 mmHg 89%
10:00 +28°C° 1.5 mm 1 mps 739 mmHg 86%
11:00 +29°C° 0.6 mm 1 mps 738 mmHg 81%
12:00 +30°C° 0.6 mm 1 mps 737 mmHg 75%
13:00 +31°C° 0.6 mm 2 mps 736 mmHg 69%
14:00 +31°C° 0.1 mm 2 mps 735 mmHg 71%
15:00 +31°C° 0.1 mm 2 mps 735 mmHg 73%
16:00 +31°C° 0.1 mm 1 mps 735 mmHg 75%
17:00 +29°C° 0.1 mm 1 mps 735 mmHg 78%
18:00 +28°C° 0.1 mm 1 mps 736 mmHg 81%
19:00 +27°C° 0.1 mm 1 mps 736 mmHg 84%
20:00 +26°C° 0 mm 1 mps 736 mmHg 84%
21:00 +26°C° 0 mm 1 mps 737 mmHg 84%
22:00 +26°C° 0 mm 1 mps 737 mmHg 83%
23:00 +25°C° 0.4 mm 1 mps 737 mmHg 85%

Day after tomorrow, 1 November, Sunday

Time Temperature Precipitation Wind Pressure Humidity
00:00 +25°C° 0.4 mm 1 mps 736 mmHg 88%
01:00 +24°C° 0.4 mm 1 mps 736 mmHg 90%
02:00 +24°C° 1 mm 1 mps 736 mmHg 91%
03:00 +24°C° 1 mm 1 mps 736 mmHg 91%
04:00 +24°C° 1 mm 1 mps 736 mmHg 91%
05:00 +24°C° 1 mm 1 mps 737 mmHg 91%
06:00 +25°C° 1 mm 1 mps 737 mmHg 90%
07:00 +25°C° 1 mm 1 mps 738 mmHg 90%
08:00 +26°C° 1 mm 1 mps 738 mmHg 89%
09:00 +25°C° 1 mm 0 mps 738 mmHg 88%
10:00 +26°C° 1 mm 0 mps 738 mmHg 87%
11:00 +26°C° 1.8 mm 0 mps 737 mmHg 87%
12:00 +26°C° 1.8 mm 0 mps 736 mmHg 86%
13:00 +26°C° 1.8 mm 0 mps 736 mmHg 86%
14:00 +28°C° 0.5 mm 1 mps 735 mmHg 88%
15:00 +27°C° 0.5 mm 1 mps 735 mmHg 91%
16:00 +26°C° 0.5 mm 1 mps 735 mmHg 93%
17:00 +26°C° 0.1 mm 1 mps 735 mmHg 93%
18:00 +26°C° 0.1 mm 1 mps 736 mmHg 92%
19:00 +23°C° 0.1 mm 0 mps 737 mmHg 92%
20:00 +23°C° 0.1 mm 0 mps 737 mmHg 92%
21:00 +25°C° 0.1 mm 1 mps 737 mmHg 93%
22:00 +25°C° 0.1 mm 1 mps 737 mmHg 93%
23:00 +25°C° 0 mm 1 mps 737 mmHg 93%

2 November, Monday

Time Temperature Precipitation Wind Pressure Humidity
00:00 +25°C° 0 mm 1 mps 737 mmHg 93%
01:00 +25°C° 0 mm 1 mps 736 mmHg 93%
02:00 +25°C° 0.1 mm 1 mps 736 mmHg 93%
03:00 +22°C° 0.1 mm 0 mps 736 mmHg 93%
04:00 +22°C° 0.1 mm 0 mps 736 mmHg 93%
05:00 +23°C° 0 mm 0 mps 737 mmHg 92%
06:00 +23°C° 0 mm 0 mps 737 mmHg 91%
07:00 +23°C° 0 mm 0 mps 738 mmHg 90%
08:00 +25°C° 0 mm 0 mps 738 mmHg 85%
09:00 +28°C° 0 mm 1 mps 738 mmHg 81%
10:00 +29°C° 0 mm 1 mps 738 mmHg 76%
11:00 +29°C° 0.2 mm 1 mps 737 mmHg 76%
12:00 +30°C° 0.2 mm 2 mps 736 mmHg 76%
13:00 +30°C° 0.2 mm 2 mps 735 mmHg 76%
14:00 +30°C° 0.7 mm 2 mps 735 mmHg 78%
15:00 +30°C° 0.7 mm 1 mps 735 mmHg 80%
16:00 +29°C° 0.7 mm 1 mps 734 mmHg 82%
17:00 +28°C° 0.7 mm 1 mps 735 mmHg 86%
18:00 +27°C° 0.7 mm 1 mps 735 mmHg 90%
19:00 +26°C° 0.7 mm 1 mps 736 mmHg 95%
20:00 +26°C° 1.5 mm 1 mps 736 mmHg 95%
21:00 +25°C° 1.5 mm 1 mps 736 mmHg 95%
22:00 +25°C° 1.5 mm 1 mps 737 mmHg 96%
23:00 +25°C° 0.3 mm 1 mps 736 mmHg 95%

3 November, Tuesday

Time Temperature Precipitation Wind Pressure Humidity
00:00 +25°C° 0.3 mm 1 mps 736 mmHg 95%
01:00 +25°C° 0.3 mm 1 mps 736 mmHg 95%
02:00 +25°C° 0.2 mm 1 mps 736 mmHg 95%
03:00 +25°C° 0.2 mm 1 mps 736 mmHg 95%
04:00 +22°C° 0.2 mm 0 mps 736 mmHg 94%
05:00 +23°C° 0.1 mm 0 mps 736 mmHg 94%
06:00 +23°C° 0.1 mm 0 mps 737 mmHg 93%
07:00 +23°C° 0.1 mm 0 mps 738 mmHg 93%
08:00 +24°C° 0.4 mm 0 mps 738 mmHg 88%
09:00 +26°C° 0.4 mm 0 mps 738 mmHg 83%
10:00 +27°C° 0.4 mm 0 mps 738 mmHg 78%
11:00 +30°C° 0.4 mm 1 mps 737 mmHg 74%
12:00 +31°C° 0.4 mm 1 mps 737 mmHg 71%
13:00 +31°C° 0.4 mm 2 mps 736 mmHg 67%
14:00 +31°C° 0.3 mm 2 mps 735 mmHg 71%
15:00 +30°C° 0.3 mm 1 mps 735 mmHg 75%
16:00 +30°C° 0.3 mm 1 mps 735 mmHg 79%
17:00 +29°C° 0.4 mm 1 mps 735 mmHg 83%
18:00 +27°C° 0.4 mm 1 mps 736 mmHg 87%
19:00 +26°C° 0.4 mm 1 mps 736 mmHg 91%
20:00 +26°C° 1.8 mm 1 mps 737 mmHg 93%
21:00 +25°C° 1.8 mm 1 mps 737 mmHg 94%
22:00 +25°C° 1.8 mm 1 mps 737 mmHg 95%
23:00 +25°C° 2 mm 1 mps 737 mmHg 95%

4 November, Wednesday

Time Temperature Precipitation Wind Pressure Humidity
00:00 +25°C° 2 mm 1 mps 737 mmHg 95%
01:00 +24°C° 2 mm 2 mps 737 mmHg 96%
02:00 +24°C° 1.6 mm 1 mps 737 mmHg 96%
03:00 +24°C° 1.6 mm 1 mps 737 mmHg 96%
04:00 +24°C° 1.6 mm 1 mps 737 mmHg 96%
05:00 +24°C° 0.9 mm 1 mps 737 mmHg 96%
06:00 +24°C° 0.9 mm 1 mps 738 mmHg 96%
07:00 +25°C° 0.9 mm 1 mps 738 mmHg 96%
08:00 +26°C° 0.7 mm 1 mps 739 mmHg 94%
09:00 +26°C° 0.7 mm 1 mps 739 mmHg 91%
10:00 +27°C° 0.7 mm 2 mps 739 mmHg 89%
11:00 +28°C° 0.7 mm 2 mps 738 mmHg 84%
12:00 +29°C° 0.7 mm 2 mps 737 mmHg 80%
13:00 +30°C° 0.7 mm 2 mps 737 mmHg 75%
14:00 +30°C° 0.2 mm 1 mps 736 mmHg 75%
15:00 +30°C° 0.2 mm 1 mps 736 mmHg 75%
16:00 +30°C° 0.2 mm 1 mps 735 mmHg 75%
17:00 +28°C° 0.1 mm 1 mps 736 mmHg 80%
18:00 +27°C° 0.1 mm 1 mps 736 mmHg 85%
19:00 +26°C° 0.1 mm 1 mps 736 mmHg 91%
20:00 +26°C° 0 mm 1 mps 737 mmHg 90%
21:00 +25°C° 0 mm 1 mps 737 mmHg 89%
22:00 +25°C° 0 mm 1 mps 737 mmHg 88%
23:00 +25°C° 0 mm 1 mps 737 mmHg 88%
Show more